Location: Bidart
(43.4376°N, 1.5913°W)
Time: 05:02:47
(UTC+00:00)

USA 229 DEB - Pass Details

Date: 16 April 2026
Orbit: 844 x 1364 km, 63.4° (Epoch: 10 January)

Event Time Altitude Azimuth Distance (km) Brightness Sun altitude
Rises 20:13:50 0° 284° (WNW) 3,612 8.0 -14.7°
Reaches altitude 10° 20:17:21 10° 305° (NW) 2,758 7.3 -15.3°
Maximum altitude 20:21:26 17° 344° (NNW) 2,392 6.2 -15.9°
Drops below altitude 10° 20:25:50 10° 23° (NNE) 2,997 6.2 -16.6°
Sets 20:29:54 0° 43° (NE) 4,071 6.6 -17.2°
